Location: Taupo
(38.6830°S, 176.0830°E)
Time: 16:27:53
(UTC+13:00)

Cosmos 2227 - Pass Details

Date: 24 January 2019
Orbit: 834 x 862 km, 71.0° (Epoch: 20 February)

Event Time Altitude Azimuth Distance (km) Brightness Sun altitude
Rises 21:32:34 0° 203° (SSW) 3,436 8.4 -10.1°
Reaches altitude 10° 21:35:03 10° 201° (SSW) 2,491 7.6 -10.5°
Maximum altitude 21:40:47 84° 114° (ESE) 856 4.2 -11.4°
Enters shadow 21:45:59 12° 24° (NNE) 2,286 5.9 -12.3°
